Location: Helsinki
(60.1699°N, 24.9384°E)
Time: 00:01:59
(UTC+02:00)

Altair - Pass Details

Date: 27 October 2020
Orbit: 1502 x 1682 km, 47.2° (Epoch: 25 November)

Event Time Altitude Azimuth Distance (km) Brightness Sun altitude
Rises 12:30:18 0° 278° (W) 4,786 10.1 16.6°
Reaches altitude 10° 12:34:52 10° 259° (W) 3,833 9.9 16.6°
Maximum altitude 12:40:17 17° 225° (SW) 3,367 10.4 16.5°
Drops below altitude 10° 12:45:47 10° 191° (S) 3,898 12.5 16.3°
Sets 12:50:31 0° 172° (S) 4,904 11.5 16.2°
